Cumberland, WV

7:58 AM EST on January 22, 2018 (GMT -0500)
Greater Cumberland Regional

Weather History for KCBE - April, 2013

Change the Weather History Date:

Wednesday, April 10, 2013

  Actual Average (KMRB) Record (KMRB)
Temperature  
Mean Temperature 71 °F -  
Max Temperature 87 °F 61 °F 90 °F (2013)
Min Temperature 55 °F 38 °F 19 °F (1985)
Cooling Degree Days 6    
Growing Degree Days 21 (Base 50)    
Moisture  
Dew Point 54 °F    
Average Humidity 52    
Maximum Humidity 88    
Minimum Humidity 33    
Precipitation  
Precipitation 0.00 in - - ()
Sea Level Pressure  
Sea Level Pressure 29.94 in    
Wind  
Wind Speed 5 mph (SW)    
Max Wind Speed 25 mph    
Max Gust Speed 41 mph    
Visibility 10 miles    
Events      
Averages and records for this station are not official NWS values.
T = Trace of Precipitation, MM = Missing Value Source: NWS Daily Summary

Daily Weather History Graph

Daily Weather History Graph

Search for Another Location

Airport or City:

Trip Planner

Search our weather history database for the weather conditions in past years. The results will help you decide how hot, cold, wet, or windy it might be!

Date:

Astronomy

Apr. 10, 2013 Rise Set
Actual Time 6:44 AM EDT 7:48 PM EDT
Civil Twilight 6:17 AM EDT 8:15 PM EDT
Nautical Twilight 5:44 AM EDT 8:48 PM EDT
Astronomical Twilight 5:10 AM EDT 9:23 PM EDT
Moon 6:40 AM EDT (4/10) 8:22 PM EDT (4/10)
Length of Visible Light 13h 58m
Length of Day
13h 03m
New Moon, 0% of the Moon is Illuminated
Apr 10
New Moon
Apr 18
First Quarter
Apr 25
Full
May 2
Last Quarter
May 9
New

Hourly Weather History & Observations

Time (EDT) Temp. Heat Index Dew Point Humidity Pressure Visibility Wind Dir Wind Speed Gust Speed Precip Events Conditions
12:02 AM 62.6 °F - 51.8 °F 68% 29.96 in 10.0 mi Calm Calm - N/A   Clear
12:22 AM 62.6 °F - 51.8 °F 68% 29.96 in 10.0 mi Calm Calm - N/A   Clear
12:42 AM 62.6 °F - 51.8 °F 68% 29.96 in 10.0 mi Calm Calm - N/A   Clear
1:03 AM 62.6 °F - 51.8 °F 68% 29.97 in 10.0 mi Calm Calm - N/A   Clear
1:23 AM 62.6 °F - 51.8 °F 68% 29.97 in 10.0 mi SSE 3.5 mph - N/A   Clear
1:43 AM 60.8 °F - 51.8 °F 72% 29.96 in 10.0 mi Calm Calm - N/A   Clear
2:03 AM 60.8 °F - 51.8 °F 72% 29.97 in 10.0 mi NW 3.5 mph - N/A   Clear
2:23 AM 60.8 °F - 51.8 °F 72% 29.96 in 10.0 mi Calm Calm - N/A   Clear
2:43 AM 60.8 °F - 51.8 °F 72% 29.97 in 10.0 mi Calm Calm - N/A   Clear
3:03 AM 59.0 °F - 51.8 °F 77% 29.97 in 10.0 mi Calm Calm - N/A   Clear
3:23 AM 55.4 °F - 51.8 °F 88% 29.98 in 10.0 mi Calm Calm - N/A   Clear
3:43 AM 57.2 °F - 51.8 °F 82% 29.98 in 10.0 mi South 3.5 mph - N/A   Clear
4:03 AM 57.2 °F - 51.8 °F 82% 29.99 in 10.0 mi Calm Calm - N/A   Clear
4:23 AM 57.2 °F - 51.8 °F 82% 29.99 in 10.0 mi Calm Calm - N/A   Clear
4:43 AM 57.2 °F - 51.8 °F 82% 29.99 in 10.0 mi NNE 3.5 mph - N/A   Clear
5:03 AM 55.4 °F - 51.8 °F 88% 29.99 in 10.0 mi NW 4.6 mph - N/A   Clear
5:23 AM 59.0 °F - 51.8 °F 77% 29.99 in 10.0 mi SE 4.6 mph - N/A   Clear
5:43 AM 59.0 °F - 51.8 °F 77% 30.00 in 10.0 mi South 3.5 mph - N/A   Clear
6:03 AM 64.4 °F - 51.8 °F 64% 30.00 in 10.0 mi South 4.6 mph - N/A   Clear
6:23 AM 60.8 °F - 51.8 °F 72% 29.99 in 10.0 mi SSE 4.6 mph - N/A   Scattered Clouds
6:43 AM 60.8 °F - 51.8 °F 72% 29.99 in 10.0 mi SSE 5.8 mph - N/A   Scattered Clouds
7:03 AM 62.6 °F - 51.8 °F 68% 29.99 in 10.0 mi SSE 6.9 mph - N/A   Clear
7:23 AM 62.6 °F - 53.6 °F 72% 30.00 in 10.0 mi South 6.9 mph - N/A   Clear
7:43 AM 64.4 °F - 53.6 °F 68% 30.00 in 10.0 mi South 4.6 mph - N/A   Clear
8:03 AM 64.4 °F - 53.6 °F 68% 30.01 in 10.0 mi Calm Calm - N/A   Clear
8:23 AM 66.2 °F - 53.6 °F 64% 30.01 in 10.0 mi SSE 3.5 mph - N/A   Clear
8:43 AM 71.6 °F - 55.4 °F 57% 30.01 in 10.0 mi South 3.5 mph - N/A   Clear
9:03 AM 71.6 °F - 55.4 °F 57% 30.00 in 10.0 mi South 6.9 mph - N/A   Clear
9:23 AM 75.2 °F - 55.4 °F 50% 30.00 in 10.0 mi South 5.8 mph - N/A   Clear
9:44 AM 77.0 °F - 55.4 °F 47% 29.99 in 10.0 mi South 6.9 mph - N/A   Clear
10:04 AM 77.0 °F - 55.4 °F 47% 29.99 in 10.0 mi WNW 3.5 mph - N/A   Scattered Clouds
10:41 AM 80.6 °F 80.8 °F 57.2 °F 45% 29.99 in 10.0 mi WSW 15.0 mph 31.1 mph N/A   Scattered Clouds
11:04 AM 80.6 °F 80.5 °F 55.4 °F 42% 29.98 in 10.0 mi SW 17.3 mph 31.1 mph N/A   Scattered Clouds
11:24 AM 80.6 °F 80.5 °F 55.4 °F 42% 29.99 in 10.0 mi WSW 18.4 mph 31.1 mph N/A   Scattered Clouds
11:44 AM 82.4 °F 82.0 °F 57.2 °F 42% 29.98 in 10.0 mi SW 9.2 mph 26.5 mph N/A   Scattered Clouds
12:04 PM 82.4 °F 81.7 °F 55.4 °F 39% 29.98 in 10.0 mi WSW 11.5 mph 23.0 mph N/A   Scattered Clouds
12:24 PM 82.4 °F 81.7 °F 55.4 °F 39% 29.97 in 10.0 mi SSW 16.1 mph 21.9 mph N/A   Scattered Clouds
12:44 PM 82.4 °F 81.7 °F 55.4 °F 39% 29.96 in 10.0 mi West 10.4 mph 17.3 mph N/A   Scattered Clouds
1:04 PM 82.4 °F 81.7 °F 55.4 °F 39% 29.95 in 10.0 mi SW 9.2 mph 27.6 mph N/A   Scattered Clouds
1:24 PM 82.4 °F 81.7 °F 55.4 °F 39% 29.95 in 10.0 mi WSW 9.2 mph - N/A   Scattered Clouds
1:44 PM 82.4 °F 81.7 °F 55.4 °F 39% 29.95 in 10.0 mi SW 11.5 mph 17.3 mph N/A   Scattered Clouds
2:04 PM 86.0 °F 84.9 °F 57.2 °F 37% 29.94 in 10.0 mi WSW 16.1 mph 20.7 mph N/A   Scattered Clouds
2:24 PM 86.0 °F 84.5 °F 55.4 °F 35% 29.92 in 10.0 mi WSW 10.4 mph 21.9 mph N/A   Scattered Clouds
2:44 PM 86.0 °F 84.5 °F 55.4 °F 35% 29.92 in 10.0 mi SW 15.0 mph 24.2 mph N/A   Scattered Clouds
3:04 PM 87.8 °F 86.1 °F 55.4 °F 33% 29.90 in 10.0 mi WSW 8.1 mph 25.3 mph N/A   Scattered Clouds
3:24 PM 87.8 °F 86.1 °F 55.4 °F 33% 29.89 in 10.0 mi SW 13.8 mph 27.6 mph N/A   Scattered Clouds
3:44 PM 86.0 °F 84.2 °F 53.6 °F 33% 29.90 in 10.0 mi West 9.2 mph - N/A   Scattered Clouds
4:04 PM 86.0 °F 84.2 °F 53.6 °F 33% 29.90 in 10.0 mi WSW 11.5 mph 19.6 mph N/A   Scattered Clouds
4:24 PM 87.8 °F 86.1 °F 55.4 °F 33% 29.89 in 10.0 mi SW 13.8 mph 19.6 mph N/A   Clear
4:44 PM 87.8 °F 86.1 °F 55.4 °F 33% 29.87 in 10.0 mi SSW 10.4 mph 17.3 mph N/A   Clear
5:04 PM 87.8 °F 86.1 °F 55.4 °F 33% 29.86 in 10.0 mi WSW 10.4 mph - N/A   Clear
5:24 PM 87.8 °F 86.1 °F 55.4 °F 33% 29.85 in 10.0 mi SW 10.4 mph 19.6 mph N/A   Clear
5:44 PM 86.0 °F 84.2 °F 53.6 °F 33% 29.84 in 10.0 mi SSW 9.2 mph 20.7 mph N/A   Clear
6:05 PM 86.0 °F 84.2 °F 53.6 °F 33% 29.84 in 10.0 mi SSW 12.7 mph 19.6 mph N/A   Clear
6:25 PM 86.0 °F 84.2 °F 53.6 °F 33% 29.85 in 10.0 mi SW 10.4 mph 17.3 mph N/A   Clear
6:45 PM 84.2 °F 82.8 °F 53.6 °F 35% 29.85 in 10.0 mi SSW 9.2 mph - N/A   Clear
7:05 PM 84.2 °F 82.8 °F 53.6 °F 35% 29.84 in 10.0 mi SW 9.2 mph - N/A   Clear
7:25 PM 84.2 °F - 51.8 °F 33% 29.83 in 10.0 mi SW 9.2 mph 16.1 mph N/A   Clear
7:45 PM 82.4 °F - 51.8 °F 35% 29.84 in 10.0 mi SW 9.2 mph - N/A   Clear
8:05 PM 82.4 °F - 51.8 °F 35% 29.84 in 10.0 mi SW 6.9 mph 16.1 mph N/A   Clear
8:25 PM 82.4 °F - 51.8 °F 35% 29.85 in 10.0 mi WSW 9.2 mph 18.4 mph N/A   Clear
8:45 PM 82.4 °F - 51.8 °F 35% 29.86 in 10.0 mi WSW 5.8 mph - N/A   Clear
9:05 PM 82.4 °F - 51.8 °F 35% 29.86 in 10.0 mi WSW 6.9 mph - N/A   Clear
9:25 PM 82.4 °F - 51.8 °F 35% 29.87 in 10.0 mi West 6.9 mph - N/A   Clear
9:45 PM 82.4 °F - 51.8 °F 35% 29.87 in 10.0 mi West 9.2 mph - N/A   Clear
10:05 PM 82.4 °F 81.4 °F 53.6 °F 37% 29.87 in 10.0 mi West 8.1 mph - N/A   Clear
10:25 PM 80.6 °F 80.3 °F 53.6 °F 39% 29.88 in 10.0 mi West 11.5 mph - N/A   Clear
10:45 PM 80.6 °F 80.3 °F 53.6 °F 39% 29.89 in 10.0 mi WNW 9.2 mph 18.4 mph N/A   Clear
11:05 PM 71.6 °F - 55.4 °F 57% 29.96 in 10.0 mi NNW 25.3 mph 41.4 mph N/A   Scattered Clouds
11:25 PM 68.0 °F - 55.4 °F 64% 29.96 in 10.0 mi NNW 15.0 mph 34.5 mph N/A   Scattered Clouds
11:45 PM 68.0 °F - 55.4 °F 64% 29.96 in 10.0 mi NNW 6.9 mph 20.7 mph N/A   Clear